• Processing (Info)

  • MPEC 2019-T59 : 2019 SO10

    The following Minor Planet Electronic Circular may be linked-to from your own Web pages, but must not otherwise be redistributed electronically.

    A form allowing access to any MPEC is at the bottom of this page.


    Read MPEC 2019-T58 Read MPEC 2019-T60


    M.P.E.C. 2019-T59                               Issued 2019 October 3, 13:22 UT
    
         The Minor Planet Electronic Circulars contain information on unusual
             minor planets and routine data on comets.  They are published
        on behalf of Division F of the International Astronomical Union by the
              Minor Planet Center, Smithsonian Astrophysical Observatory,
                              Cambridge, MA 02138, U.S.A.
    
                 Prepared using the Tamkin Foundation Computer Network
    
                                  MPC@CFA.HARVARD.EDU
                URL https://www.minorplanetcenter.net/    ISSN 1523-6714
    
                                    2019 SO10                                
    
    
    Observations:
         K19S10O* C2019 09 24.44308 00 43 32.403-22 54 03.06         20.8 wUET059F51
         K19S10O  C2019 09 24.45401 00 43 33.343-22 54 27.39         21.1 wUET059F51
         K19S10O  C2019 09 24.46498 00 43 34.280-22 54 51.75         20.7 wUET059F51
         K19S10O  C2019 09 24.47590700 43 35.208-22 55 15.95         20.6 GVET059F51
         K19S10O  C2019 09 25.43072 00 45 07.117-23 30 27.05         20.7 wUET059F51
         K19S10O  C2019 09 25.44173 00 45 08.057-23 30 51.48         20.8 wUET059F51
         K19S10O  C2019 09 25.46379 00 45 09.958-23 31 39.95         20.8 wUET059F51
         K19S10O |C2019 09 29.24196 00 51 18.26 -25 47 12.3          21.1 VuET059807
         K19S10O |C2019 09 29.24598 00 51 18.62 -25 47 20.8          20.9 VuET059807
         K19S10O |C2019 09 29.25008 00 51 18.99 -25 47 29.4          20.8 VuET059807
         K19S10O  C2019 10 03.23412 00 58 00.83 -28 02 30.7                VET059I52
         K19S10O  C2019 10 03.23536 00 58 00.88 -28 02 32.1          20.8 GVET059I52
         K19S10O  C2019 10 03.23661 00 58 00.99 -28 02 34.2                VET059I52
         K19S10O  C2019 10 03.23786 00 58 01.12 -28 02 36.5          21.8 GVET059I52
         K19S10O KC2019 10 03.29303 00 58 06.20 -28 04 24.4          21.4 RoET059691
         K19S10O KC2019 10 03.31095 00 58 07.90 -28 04 59.1          21.8 RoET059691
         K19S10O KC2019 10 03.32875 00 58 09.52 -28 05 33.9          21.5 RoET059691
    
    Observer details:
    691 Steward Observatory, Kitt Peak-Spacewatch.  Observer A. F. Tubbiolo.  0.9-m 
       f/3 reflector + CCD.
    807 Cerro Tololo Observatory, La Serena.  Observers T. Linder, R. Holmes.  
        0.61-m f/6.5 astrograph + CCD.
    F51 Pan-STARRS 1, Haleakala.  Observers J. Bulger, T. Lowe, A. Schultz, M. 
       Willman, K. Chambers, E. Magnier.  Measurers K. Chambers, S. Chastel, T. de 
       Boer, L. Denneau, J. Fairlamb, H. Flewelling, M. Huber, C.-C. Lin, E. 
       Magnier, Y. Ramanjooloo, R. Wainscoat, R. Weryk.  1.8-m Ritchey-Chretien + 
       CCD.
    I52 Steward Observatory, Mt. Lemmon Station.  Observer T. A. Pruyne.  Measurers 
       B. M. Africano, E. J. Christensen, G. A. Farneth, D. C. Fuls, A. R. Gibbs, 
       A. D. Grauer, H. Groeller, R. A. Kowalski, S. M. Larson, G. J. Leonard, T. 
       A. Pruyne, D. Rankin, R. L. Seaman, F. C. Shelly.  1.0-m reflector + CCD.
    
    Orbital elements:
    2019 SO10                                                Earth MOID = 0.3451 AU
    Epoch 2019 Apr. 27.0 TT = JDT 2458600.5                 Veres
    M 321.73416              (2000.0)            P               Q
    n   0.20034387     Peri.  243.41749     +0.80617801     -0.58106173
    a   2.8925797      Node   151.68965     +0.59105772     +0.78229973
    e   0.5630216      Incl.   13.60478     +0.02697750     +0.22444241
    P   4.92           H   21.3           G   0.15           U   7
    Residuals in seconds of arc
    190924 F51  0.1-  0.0     190925 F51  0.1+  0.1+    191003 I52  0.0   0.1+
    190924 F51  0.0   0.0     190929 807  0.0   0.1+    191003 I52  0.1+  0.2+
    190924 F51  0.0   0.0     190929 807  0.0   0.0     191003 691  0.7-  0.4+
    190924 F51  0.0   0.0     190929 807  0.0   0.0     191003 691  0.1-  0.6+
    190925 F51  0.0   0.0     191003 I52  0.9+  1.3-    191003 691  0.4-  0.3+
    190925 F51  0.0   0.1-    191003 I52  0.1+  0.3-
    
    Ephemeris:
    2019 SO10                a,e,i = 2.89, 0.56, 14                  q = 1.2640
    Date    TT    R. A. (2000) Decl.     Delta      r    Elong.  Phase     V
    2019 09 03    00 11 52.4 -10 19 11   0.4559  1.4432   158.7    14.7    21.2
    ...
    2019 09 18    00 33 31.6 -18 53 16   0.3856  1.3716   158.7    15.4    20.8
    ...
    2019 09 26    00 46 01.6 -23 51 00   0.3649  1.3395   153.6    19.4    20.7
    ...
    2019 10 02    00 55 54.4 -27 21 35   0.3563  1.3188   148.8    23.2    20.8
    2019 10 03    00 57 36.0 -27 54 32   0.3554  1.3156   147.9    23.8    20.8
    2019 10 04    00 59 18.4 -28 26 42   0.3546  1.3125   147.1    24.5    20.8
    ...
    2019 10 10    01 09 48.9 -31 20 58   0.3528  1.2958   142.2    28.2    20.8
    ...
    2019 10 18    01 24 24.6 -34 13 40   0.3567  1.2788   136.4    32.5    21.0
    ...
    2019 11 02    01 52 23.8 -36 07 14   0.3781  1.2640   128.8    37.8    21.2
    
    A. U. Tomatic                (C) Copyright 2019 MPC           M.P.E.C. 2019-T59
    


    Read MPEC 2019-T58 Read MPEC 2019-T60


    MPEC number:

    Enter an MPEC number in one of the following forms:

    • 1997-B01 (the full form)
    • J97B01 (the packed version of the full form)
    • B01 (the abbreviated form)